This demonstration page uses our WeatherBlox Daily Observations layout. Learn more.

Left ArrowRight Arrow

36.17497, -115.13722

Hourly Observations for August 9, 2019

Temp ( °F °C ) Dew Point ( °F °C ) Humidity (%) Winds ( mph kmh ) Pressure ( in mb ) Visibility ( mi km ) Precip ( " mm )
12:53 am 00:53 Clear 92 33.3 36 2.2 14 14 W 14 22 29.77 1008 10 16 0.00 0.00
1:53 am 01:53 Clear 86 30 37 2.8 18 18 ENE 6 9 29.78 1009 10 16 0.00 0.00
2:53 am 02:53 Clear 86 30 37 2.8 18 18 SE 5 7 29.78 1009 10 16 0.00 0.00
3:53 am 03:53 Clear 82 27.8 43 6.1 25 25 NE 7 11 29.79 1009 10 16 0.00 0.00
4:53 am 04:53 Clear 82 27.8 39 3.9 22 22 Calm 29.80 1009 10 16 0.00 0.00
5:53 am 05:53 Clear 79 26.1 41 5 26 26 N 5 7 29.82 1010 10 16 0.00 0.00
6:53 am 06:53 Partly Cloudy 81 27.2 43 6.1 26 26 WNW 3 6 29.84 1010 10 16 0.00 0.00
7:53 am 07:53 Sunny 84 28.9 45 7.2 25 25 E 3 6 29.86 1011 10 16 0.00 0.00
8:53 am 08:53 Sunny 88 31.1 40 4.4 18 18 ESE 6 9 29.86 1011 10 16 0.00 0.00
9:53 am 09:53 Sunny 92 33.3 37 2.8 14 14 SE 8 13 29.85 1011 10 16 0.00 0.00
10:53 am 10:53 Sunny 96 35.6 37 2.8 13 13 SSW 16 26 29.84 1011 10 16 0.00 0.00
11:53 am 11:53 Sunny 99 37.2 33 0.6 10 10 SSW 20 31 29.83 1010 10 16 0.00 0.00
12:53 pm 12:53 Sunny 100 37.8 30 -1.1 8 8 SSW 22 35 29.80 1009 10 16 0.00 0.00
1:53 pm 13:53 Sunny 101 38.3 29 -1.7 8 8 SSW 12 19 29.79 1009 10 16 0.00 0.00
2:53 pm 14:53 Sunny 102 38.9 27 -2.8 7 7 WSW 12 19 29.77 1008 10 16 0.00 0.00
3:53 pm 15:53 Sunny 102 38.9 24 -4.4 6 6 WSW 18 30 29.74 1007 10 16 0.00 0.00
4:53 pm 16:53 Sunny 102 38.9 23 -5 6 6 WSW 17 28 29.74 1007 10 16 0.00 0.00
5:36 pm 17:36 Sunny with Nearby Thunderstorms 100 37.8 20 -6.7 5 5 SW 12 19 29.57 1001 10 16 0.00 0.00
5:51 pm 17:51 Sunny 100 38 19 -7 5 5 SW 13 20 29.57 1001 10 16 0.00 0.00
5:53 pm 17:53 Sunny 100 37.8 20 -6.7 5 5 SW 17 28 29.74 1007 10 16 0.00 0.00
6:53 pm 18:53 Sunny 98 36.7 20 -6.7 6 6 SW 16 26 29.74 1007 10 16 0.00 0.00
7:53 pm 19:53 Clear 95 35 24 -4.4 8 8 SW 10 17 29.75 1007 10 16 0.00 0.00
8:53 pm 20:53 Clear 94 34.4 24 -4.4 8 8 WSW 10 17 29.75 1008 10 16 0.00 0.00
9:53 pm 21:53 Clear 91 32.8 24 -4.4 9 9 WSW 5 7 29.76 1008 10 16 0.00 0.00
10:53 pm 22:53 Clear 86 30 27 -2.8 12 12 S 5 7 29.77 1008 10 16 0.00 0.00
11:53 pm 23:53 Clear 86 30 28 -2.2 12 12 S 5 7 29.78 1008 10 16 0.00 0.00

Powered by AerisWeather